Date String (YYYY-MM-DD hh:mm:ss) UTC,Instrument flags,absolute air pressure of the measurement (hPa),sample flow rate (lpm),inlet stack bypass flow (lpm),air temperature of the measurement (°C),ambient temperature measured by the external sensor (°C),aerosol sample conditioner tube jacket temperature (°C),OPC LED temperature (°C),internal box temperature (°C),relative humidity of the measurement (%),span deviation,mass concentration of particles derived from Lorenz-Mie calculation of OPC scattering (μg/m³),mass concentration of particles derived from Lorenz-Mie calculation of OPC scattering (μg/m³),mass concentration of particles derived from Lorenz-Mie calculation of OPC scattering (μg/m³)
DateTimeUTC,F1_M11,P_M11,Q1_M11,Q2_M11,T1_M11,T2_M11,T3_M11,T4_M11,T5_M11,U1_M11,ZSPAN_M11,X0_M11,X2_M11,X1_M11
2024-04-01 03:00:00,SystemResetWarning,0817.5,5.00,000.00,022.7,021.9,000.0,031.3,024.5,15.9,0000.0,0000.33,0000.12,0000.07
2024-04-01 03:01:00,SystemResetWarning,0817.5,5.00,000.00,022.7,021.9,000.0,031.3,024.5,15.9,0000.0,0000.33,0000.12,0000.07
2024-04-01 03:02:00,SystemResetWarning,0817.4,5.00,000.00,022.6,021.9,000.0,031.3,024.5,15.8,0000.0,0000.33,0000.12,0000.07
2024-04-01 03:03:00,SystemResetWarning,0817.3,5.00,000.00,022.6,021.8,000.0,031.3,024.4,15.6,0000.0,0000.91,0000.15,0000.07
2024-04-01 03:04:00,SystemResetWarning,0817.2,5.01,000.00,022.6,021.8,000.0,031.2,024.4,15.9,0000.0,0002.56,0000.16,0000.07
2024-04-01 03:05:00,SystemResetWarning,0817.1,5.00,000.00,022.6,021.8,000.0,031.2,024.4,15.9,0000.0,0003.62,0000.17,0000.08
2024-04-01 03:06:00,SystemResetWarning,0817.1,5.00,000.00,022.6,021.8,000.0,031.2,024.4,15.5,0000.0,0004.15,0000.19,0000.08
2024-04-01 03:07:00,SystemResetWarning,0817.0,5.01,000.00,022.6,021.9,000.0,031.2,024.4,15.6,0000.0,0004.14,0000.19,0000.08
2024-04-01 03:08:00,SystemResetWarning,0817.0,5.00,000.00,022.6,021.9,000.0,031.2,024.4,15.5,0000.0,0004.09,0000.17,0000.08
2024-04-01 03:09:00,SystemResetWarning,0816.9,5.00,000.00,022.6,021.9,000.0,031.2,024.5,15.2,0000.0,0004.01,0000.17,0000.08
2024-04-01 03:10:00,SystemResetWarning,0816.9,4.99,000.00,022.6,021.9,000.0,031.2,024.5,14.7,0000.0,0003.99,0000.18,0000.09
2024-04-01 03:11:00,SystemResetWarning,0816.8,5.00,000.00,022.6,021.9,000.0,031.2,024.5,14.5,0000.0,0004.01,0000.21,0000.10
2024-04-01 03:12:00,SystemResetWarning,0816.7,5.00,000.00,022.6,021.8,000.0,031.2,024.4,14.3,0000.0,0004.15,0000.25,0000.11
2024-04-01 03:13:00,SystemResetWarning,0816.6,4.99,000.00,022.6,021.8,000.0,031.2,024.4,13.8,0000.0,0004.19,0000.26,0000.12
2024-04-01 03:14:00,SystemResetWarning,0816.7,5.00,000.00,022.6,021.8,000.0,031.2,024.4,13.6,0000.0,0004.21,0000.26,0000.13
2024-04-01 03:15:00,SystemResetWarning,0816.8,5.00,000.00,022.6,021.7,000.0,031.2,024.4,13.8,0000.0,0002.24,0000.26,0000.13
2024-04-01 03:16:00,SystemResetWarning,0816.9,5.00,000.00,022.5,021.7,000.0,031.2,024.3,13.7,0000.0,0001.58,0000.26,0000.15
2024-04-01 03:17:00,SystemResetWarning,0816.8,5.00,000.00,022.5,021.7,000.0,031.2,024.3,13.9,0000.0,0000.50,0000.27,0000.16
2024-04-01 03:18:00,SystemResetWarning,0816.7,5.01,000.00,022.5,021.7,000.0,031.2,024.3,14.9,0000.0,0000.67,0000.29,0000.18
2024-04-01 03:19:00,SystemResetWarning,0816.6,5.01,000.00,022.5,021.7,000.0,031.2,024.3,16.2,0000.0,0001.05,0000.32,0000.19
2024-04-01 03:20:00,SystemResetWarning,0816.9,4.99,000.00,022.5,021.6,000.0,031.1,024.3,16.2,0000.0,0001.24,0000.34,0000.20
2024-04-01 03:21:00,SystemResetWarning,0816.9,4.99,000.00,022.5,021.6,000.0,031.1,024.3,16.1,0000.0,0001.65,0000.36,0000.20
2024-04-01 03:22:00,SystemResetWarning,0816.9,5.00,000.00,022.4,021.6,000.0,031.1,024.2,16.4,0000.0,0002.33,0000.36,0000.21
2024-04-01 03:23:00,SystemResetWarning,0816.9,5.00,000.00,022.4,021.6,000.0,031.1,024.3,15.8,0000.0,0002.25,0000.34,0000.21
2024-04-01 03:24:00,SystemResetWarning,0816.9,5.01,000.00,022.4,021.6,000.0,031.1,024.3,15.4,0000.0,0002.25,0000.35,0000.21
2024-04-01 03:25:00,SystemResetWarning,0816.9,5.01,000.00,022.4,021.6,000.0,031.1,024.2,15.0,0000.0,0002.29,0000.38,0000.21
2024-04-01 03:26:00,SystemResetWarning,0816.9,5.00,000.00,022.4,021.6,000.0,031.1,024.2,15.1,0000.0,0002.31,0000.39,0000.21
2024-04-01 03:27:00,SystemResetWarning,0816.9,5.01,000.00,022.4,021.6,000.0,031.1,024.2,14.4,0000.0,0002.42,0000.44,0000.22
2024-04-01 03:28:00,SystemResetWarning,0816.9,5.00,000.00,022.4,021.6,000.0,031.0,024.2,13.4,0000.0,0002.41,0000.44,0000.21
2024-04-01 03:29:00,SystemResetWarning,0817.0,4.99,000.00,022.4,021.6,000.0,031.0,024.2,12.6,0000.0,0002.32,0000.43,0000.21
2024-04-01 03:30:00,SystemResetWarning,0816.9,5.00,000.00,022.4,021.5,000.0,031.0,024.2,13.3,0000.0,0002.06,0000.45,0000.22
2024-04-01 03:31:00,SystemResetWarning,0816.9,5.00,000.00,022.4,021.5,000.0,031.0,024.2,13.2,0000.0,0001.86,0000.45,0000.22
2024-04-01 03:32:00,SystemResetWarning,0816.9,4.99,000.00,022.3,021.6,000.0,031.0,024.2,12.8,0000.0,0001.79,0000.45,0000.23
2024-04-01 03:33:00,SystemResetWarning,0816.9,5.00,000.00,022.3,021.5,000.0,031.0,024.2,12.2,0000.0,0000.82,0000.45,0000.23
2024-04-01 03:34:00,SystemResetWarning,0816.9,4.99,000.00,022.3,021.5,000.0,031.0,024.2,11.9,0000.0,0000.82,0000.45,0000.24
2024-04-01 03:35:00,SystemResetWarning,0816.9,4.99,000.00,022.3,021.5,000.0,031.0,024.2,12.1,0000.0,0000.84,0000.46,0000.25
2024-04-01 03:36:00,SystemResetWarning,0816.9,5.00,000.00,022.3,021.5,000.0,031.0,024.2,11.9,0000.0,0000.80,0000.44,0000.26
2024-04-01 03:37:00,SystemResetWarning,0816.9,5.01,000.00,022.3,021.5,000.0,031.0,024.2,12.0,0000.0,0000.81,0000.44,0000.26
2024-04-01 03:38:00,SystemResetWarning,0817.0,5.01,000.00,022.3,021.5,000.0,030.9,024.1,11.9,0000.0,0000.76,0000.42,0000.27
2024-04-01 03:39:00,SystemResetWarning,0817.0,5.00,000.00,022.3,021.5,000.0,030.9,024.1,12.0,0000.0,0000.81,0000.44,0000.28
2024-04-01 03:40:00,SystemResetWarning,0817.1,5.00,000.00,022.3,021.5,000.0,030.9,024.1,12.1,0000.0,0000.88,0000.47,0000.28
2024-04-01 03:41:00,SystemResetWarning,0817.0,4.99,000.00,022.3,021.5,000.0,030.9,024.1,12.0,0000.0,0000.87,0000.47,0000.29
2024-04-01 03:42:00,SystemResetWarning,0817.0,4.99,000.00,022.3,021.5,000.0,030.9,024.1,11.9,0000.0,0000.88,0000.47,0000.29
2024-04-01 03:43:00,SystemResetWarning,0817.0,5.00,000.00,022.3,021.6,000.0,030.9,024.1,11.5,0000.0,0000.86,0000.47,0000.29
2024-04-01 03:44:00,SystemResetWarning,0817.0,5.01,000.00,022.3,021.5,000.0,030.9,024.1,11.6,0000.0,0000.86,0000.47,0000.29
2024-04-01 03:45:00,SystemResetWarning,0816.9,5.01,000.00,022.3,021.5,000.0,030.9,024.1,11.8,0000.0,0000.83,0000.47,0000.30
2024-04-01 03:46:00,SystemResetWarning,0816.9,5.00,000.00,022.3,021.5,000.0,030.9,024.1,11.7,0000.0,0000.82,0000.48,0000.31
2024-04-01 03:47:00,SystemResetWarning,0816.9,4.99,000.00,022.3,021.5,000.0,030.9,024.1,11.7,0000.0,0000.87,0000.50,0000.31
2024-04-01 03:48:00,SystemResetWarning,0816.9,5.00,000.00,022.3,021.5,000.0,030.9,024.1,11.4,0000.0,0000.98,0000.52,0000.31
2024-04-01 03:49:00,SystemResetWarning,0816.8,5.00,000.00,022.3,021.5,000.0,030.9,024.1,11.5,0000.0,0000.98,0000.51,0000.31
2024-04-01 03:50:00,SystemResetWarning,0816.9,5.00,000.00,022.3,021.5,000.0,030.9,024.1,11.8,0000.0,0001.09,0000.52,0000.31
2024-04-01 03:51:00,SystemResetWarning,0816.9,5.00,000.00,022.3,021.5,000.0,030.9,024.1,11.5,0000.0,0001.16,0000.54,0000.31
2024-04-01 03:52:00,SystemResetWarning,0816.8,5.00,000.00,022.3,021.5,000.0,030.9,024.1,11.5,0000.0,0001.22,0000.55,0000.32
2024-04-01 03:53:00,SystemResetWarning,0816.8,5.00,000.00,022.3,021.5,000.0,030.9,024.1,11.8,0000.0,0001.22,0000.56,0000.32
2024-04-01 03:54:00,SystemResetWarning,0816.9,5.01,000.00,022.3,021.5,000.0,030.9,024.1,11.9,0000.0,0001.35,0000.61,0000.33
2024-04-01 03:55:00,SystemResetWarning,0816.9,5.01,000.00,022.3,021.5,000.0,030.9,024.1,11.8,0000.0,0001.38,0000.63,0000.33
2024-04-01 03:56:00,SystemResetWarning,0816.9,5.01,000.00,022.3,021.5,000.0,030.9,024.1,12.3,0000.0,0001.41,0000.64,0000.33
2024-04-01 03:57:00,SystemResetWarning,0816.9,5.00,000.00,022.3,021.5,000.0,030.9,024.1,12.2,0000.0,0001.44,0000.64,0000.34
2024-04-01 03:58:00,SystemResetWarning,0816.9,4.99,000.00,022.3,021.5,000.0,030.8,024.1,12.3,0000.0,0001.47,0000.68,0000.36
2024-04-01 03:59:00,SystemResetWarning,0816.9,5.00,000.00,022.3,021.5,000.0,030.8,024.1,12.1,0000.0,0001.38,0000.67,0000.37
